Powrót do katalogu

STARLINK-6291

AktywnyŁącznośćVLEO
NORAD 56547·PAYLOAD·🇺🇸 United States

Wystrzelony May 14, 2023 z Cape Canaveral Space Force Station

Loading…

Następne Przeloty (najbliższe 24 godziny)

TLE

ŚwieżeSource: CelesTrak SupGP

Epoka: Sep 14, 2026, 21:11 UTC

1 56547C 23065AW  26257.88312500  .00025568  00000+0  92632-3 0  2579
2 56547  43.0027 235.0414 0000854 274.2555 233.6927 15.27557644    10

Śledź STARLINK-6291 w czasie rzeczywistym z AllMySat

Download on the App Store